Location: Felsheim
(48.7267°N, 10.7386°E)
Time: 18:47:51
(UTC+00:00)

STARLINK-1246 - Pass Details

Date: 09 April 2020
Orbit: 549 x 550 km, 53.0° (Epoch: 03 June)

Event Time Altitude Azimuth Distance (km) Brightness Sun altitude
Rises 19:10:53 0° 293° (WNW) 2,665 9.3 -11.7°
Reaches altitude 10° 19:13:07 10° 296° (WNW) 1,774 7.8 -12.1°
Maximum altitude 19:17:07 70° 20° (NNE) 564 3.7 -12.7°
Enters shadow 19:19:46 20° 102° (ESE) 1,246 4.8 -13.0°
